sat.trackr.live / text

‹ back to catalog

HULIANWANG DIGUI-78

NORAD 65310 · 2025-187F

PAYLOAD ACTIVE UNKNOWN

§ Identity

Operator
Country
PRC
Launch date
2025-08-25
Launch site
WSC
Launch vehicle
Mass (kg)
RCS (m²)

External: N2YO · Heavens-Above · Gunter

§ Orbital elements

Epoch: 2026-05-25T04:22:57.308736Z

Period
108.33 min
Inclination
50.0117°
Eccentricity
0.0000603
Mean motion
13.29322027 rev/d
Perigee alt
1,148.9 km
Apogee alt
1,149.8 km
Semi-major
7,527.5 km
B*
5.7376e-5
RAAN
288.2921°
Arg perigee
97.5798°
Mean anomaly
262.5143°
Rev number
3,664

§ Raw data

HULIANWANG DIGUI-781 65310U 25187F   26145.18260774 -.00000097  00000+0  57376-4 0  99992 65310  50.0117 288.2921 0000603  97.5798 262.5143 13.29322027 36640

JSON: /api/v1/satellites/65310 · /tle

For live sub-satellite position, see the globe view (requires WebGL).

§ Visibility from observer

Set your observer location to see the next 7 days of passes ≥ 10°. The values pass through the URL so the page stays shareable.

No JS? Fill the form by hand. The geolocation button needs JavaScript.